Total_Precipitation_Accumulation
0.68 0.58 0.67 0.66 0.54 0.62 0.91 0.83 0.75 0.54 0.51 0.58 0.57 0.58 0.57 0.52 0.46 0.40 0.38 0.37 0.35 0.36 0.37 0.39 0.41 0.46 0.58 0.69 0.77 0.90 1.02 1.04 1.04 1.00 0.97 0.97 0.99 0.97 0.98 1.02 1.08 1.15 1.14 1.07
0.71 0.43 0.46 0.49 0.40 0.46 0.56 0.51 0.50 0.42 0.48 0.45 0.44 0.46 0.48 0.43 0.38 0.34 0.34 0.33 0.29 0.27 0.28 0.31 0.34 0.37 0.46 0.59 0.69 0.80 0.92 0.98 0.99 0.97 0.93 0.91 0.90 0.90 0.88 0.92 0.99 1.08 1.12 1.14
0.83 0.43 0.50 0.56 0.44 0.45 0.52 0.47 0.45 0.54 0.50 0.35 0.35 0.42 0.51 0.46 0.36 0.33 0.33 0.32 0.30 0.28 0.27 0.27 0.29 0.36 0.46 0.56 0.61 0.67 0.74 0.82 0.87 0.88 0.89 0.88 0.87 0.91 0.97 0.99 1.03 1.12 1.19 1.23
0.93 0.69 0.82 0.59 0.36 0.36 0.44 0.46 0.42 0.45 0.37 0.33 0.37 0.39 0.42 0.44 0.40 0.34 0.29 0.27 0.27 0.28 0.27 0.26 0.28 0.34 0.44 0.57 0.65 0.71 0.77 0.80 0.80 0.83 0.88 0.91 0.97 1.05 1.14 1.20 1.23 1.29 1.37 1.39
0.94 0.73 0.49 0.31 0.23 0.32 0.43 0.48 0.38 0.34 0.28 0.24 0.27 0.33 0.35 0.32 0.34 0.35 0.30 0.29 0.29 0.30 0.32 0.31 0.33 0.35 0.42 0.55 0.65 0.72 0.80 0.85 0.87 0.93 1.02 1.06 1.16 1.23 1.26 1.34 1.34 1.31 1.31 1.31
0.96 0.78 0.44 0.30 0.14 0.16 0.32 0.51 0.28 0.24 0.25 0.22 0.23 0.35 0.36 0.33 0.36 0.38 0.34 0.31 0.31 0.30 0.30 0.35 0.39 0.42 0.50 0.63 0.73 0.82 0.90 1.00 1.01 1.03 1.09 1.11 1.14 1.13 1.11 1.12 1.11 1.07 1.03 1.01
0.77 0.74 0.40 0.25 0.10 0.11 0.39 0.51 0.27 0.26 0.27 0.27 0.32 0.39 0.35 0.32 0.35 0.38 0.40 0.40 0.41 0.40 0.44 0.49 0.55 0.61 0.71 0.81 0.94 1.00 1.02 1.07 1.05 1.01 1.02 1.00 0.95 0.89 0.84 0.81 0.77 0.75 0.74 0.72
0.54 0.78 0.54 0.26 0.18 0.35 0.48 0.30 0.25 0.24 0.26 0.27 0.27 0.24 0.24 0.25 0.29 0.32 0.34 0.38 0.44 0.50 0.52 0.55 0.65 0.76 0.85 0.95 1.00 0.97 0.92 0.91 0.85 0.76 0.72 0.69 0.67 0.68 0.67 0.65 0.66 0.65 0.63 0.62
0.52 0.60 0.48 0.35 0.36 0.37 0.32 0.28 0.25 0.26 0.24 0.24 0.24 0.24 0.24 0.24 0.25 0.27 0.27 0.28 0.32 0.40 0.46 0.46 0.53 0.60 0.67 0.68 0.66 0.65 0.64 0.65 0.63 0.58 0.56 0.57 0.58 0.60 0.63 0.63 0.64 0.63 0.61 0.63
0.46 0.44 0.35 0.31 0.27 0.24 0.23 0.25 0.23 0.22 0.20 0.20 0.24 0.22 0.22 0.22 0.22 0.24 0.24 0.25 0.26 0.29 0.33 0.35 0.37 0.41 0.44 0.45 0.45 0.49 0.53 0.55 0.57 0.58 0.54 0.54 0.56 0.58 0.63 0.67 0.68 0.66 0.65 0.65
0.40 0.33 0.27 0.24 0.21 0.22 0.20 0.17 0.17 0.16 0.16 0.18 0.19 0.18 0.20 0.21 0.21 0.22 0.23 0.23 0.25 0.32 0.36 0.39 0.38 0.40 0.42 0.45 0.48 0.51 0.53 0.57 0.60 0.63 0.60 0.58 0.59 0.61 0.66 0.70 0.79 0.84 0.81 0.76
0.46 0.33 0.33 0.29 0.21 0.19 0.19 0.18 0.19 0.20 0.19 0.18 0.20 0.23 0.22 0.24 0.24 0.25 0.25 0.24 0.25 0.29 0.35 0.40 0.40 0.40 0.42 0.46 0.53 0.56 0.55 0.57 0.60 0.64 0.65 0.64 0.60 0.60 0.65 0.70 0.74 0.76 0.77 0.79
0.36 0.24 0.23 0.21 0.17 0.16 0.18 0.20 0.22 0.22 0.23 0.23 0.23 0.25 0.27 0.28 0.28 0.27 0.26 0.27 0.30 0.33 0.35 0.39 0.40 0.42 0.46 0.49 0.53 0.58 0.61 0.61 0.62 0.64 0.67 0.68 0.65 0.63 0.65 0.69 0.73 0.73 0.72 0.74
0.20 0.19 0.20 0.18 0.20 0.19 0.20 0.22 0.21 0.22 0.23 0.25 0.26 0.26 0.27 0.27 0.26 0.27 0.31 0.34 0.35 0.34 0.34 0.35 0.36 0.39 0.45 0.47 0.51 0.55 0.58 0.62 0.64 0.64 0.68 0.73 0.74 0.71 0.68 0.68 0.68 0.66 0.68 0.75
0.18 0.21 0.26 0.23 0.20 0.19 0.19 0.18 0.18 0.19 0.19 0.21 0.23 0.26 0.27 0.28 0.30 0.32 0.33 0.33 0.31 0.29 0.30 0.31 0.32 0.36 0.40 0.44 0.48 0.53 0.57 0.62 0.64 0.65 0.69 0.74 0.78 0.81 0.77 0.72 0.70 0.68 0.65 0.70
0.22 0.21 0.21 0.22 0.22 0.21 0.19 0.19 0.21 0.22 0.23 0.23 0.25 0.27 0.30 0.31 0.31 0.31 0.32 0.32 0.32 0.34 0.34 0.33 0.35 0.37 0.38 0.42 0.45 0.49 0.57 0.69 0.73 0.73 0.74 0.76 0.77 0.79 0.80 0.77 0.74 0.70 0.69 0.74
0.33 0.30 0.27 0.27 0.27 0.26 0.26 0.29 0.30 0.30 0.28 0.27 0.28 0.29 0.28 0.27 0.26 0.27 0.30 0.31 0.32 0.35 0.35 0.36 0.38 0.37 0.36 0.40 0.46 0.51 0.55 0.62 0.70 0.68 0.69 0.74 0.77 0.80 0.83 0.83 0.78 0.72 0.72 0.80
0.39 0.40 0.38 0.37 0.36 0.33 0.32 0.30 0.30 0.30 0.31 0.31 0.29 0.28 0.28 0.28 0.30 0.31 0.32 0.30 0.28 0.29 0.33 0.38 0.39 0.35 0.34 0.37 0.43 0.48 0.52 0.56 0.61 0.65 0.68 0.74 0.81 0.82 0.82 0.82 0.79 0.75 0.72 0.76
0.34 0.36 0.36 0.36 0.37 0.36 0.36 0.36 0.36 0.35 0.34 0.32 0.31 0.32 0.32 0.33 0.35 0.36 0.33 0.31 0.31 0.33 0.35 0.36 0.39 0.36 0.36 0.39 0.45 0.48 0.51 0.54 0.57 0.60 0.65 0.72 0.75 0.73 0.74 0.77 0.78 0.76 0.75 0.75
0.34 0.36 0.36 0.37 0.35 0.35 0.37 0.38 0.36 0.35 0.34 0.33 0.33 0.33 0.33 0.35 0.35 0.34 0.32 0.32 0.38 0.41 0.38 0.37 0.36 0.35 0.37 0.40 0.47 0.49 0.50 0.53 0.56 0.59 0.63 0.68 0.70 0.70 0.69 0.71 0.72 0.73 0.73 0.74
0.38 0.37 0.36 0.37 0.38 0.37 0.37 0.36 0.35 0.36 0.37 0.34 0.35 0.36 0.37 0.36 0.34 0.31 0.30 0.32 0.34 0.33 0.33 0.33 0.32 0.33 0.39 0.49 0.54 0.51 0.49 0.52 0.57 0.62 0.65 0.66 0.67 0.66 0.65 0.66 0.67 0.68 0.69 0.70
0.36 0.37 0.37 0.37 0.36 0.36 0.37 0.36 0.36 0.36 0.36 0.37 0.37 0.36 0.35 0.34 0.32 0.29 0.30 0.34 0.34 0.35 0.35 0.32 0.34 0.42 0.55 0.63 0.57 0.52 0.53 0.55 0.58 0.62 0.65 0.66 0.66 0.65 0.62 0.62 0.64 0.64 0.64 0.65
0.32 0.33 0.35 0.37 0.37 0.36 0.34 0.35 0.35 0.34 0.35 0.36 0.38 0.39 0.37 0.36 0.34 0.35 0.36 0.33 0.33 0.36 0.36 0.37 0.44 0.54 0.62 0.59 0.50 0.50 0.53 0.55 0.57 0.58 0.60 0.61 0.61 0.61 0.61 0.60 0.59 0.59 0.60 0.60
0.24 0.25 0.27 0.27 0.26 0.24 0.27 0.28 0.28 0.29 0.30 0.32 0.33 0.34 0.34 0.34 0.31 0.32 0.36 0.36 0.36 0.38 0.36 0.39 0.47 0.53 0.55 0.48 0.45 0.47 0.49 0.50 0.52 0.52 0.53 0.53 0.53 0.54 0.55 0.55 0.55 0.53 0.53 0.54
0.17 0.17 0.16 0.16 0.17 0.19 0.21 0.21 0.21 0.22 0.23 0.26 0.27 0.27 0.28 0.31 0.35 0.35 0.33 0.33 0.34 0.35 0.35 0.36 0.40 0.42 0.41 0.40 0.42 0.43 0.45 0.48 0.52 0.54 0.52 0.51 0.50 0.50 0.49 0.48 0.50 0.49 0.49 0.50
0.13 0.13 0.13 0.14 0.15 0.16 0.17 0.17 0.19 0.20 0.21 0.23 0.25 0.26 0.28 0.30 0.32 0.33 0.34 0.33 0.32 0.33 0.34 0.35 0.34 0.35 0.36 0.37 0.38 0.39 0.40 0.42 0.44 0.45 0.45 0.46 0.47 0.48 0.47 0.46 0.45 0.46 0.47 0.47
0.11 0.11 0.11 0.11 0.11 0.13 0.15 0.16 0.18 0.20 0.22 0.26 0.29 0.27 0.29 0.30 0.31 0.31 0.31 0.30 0.30 0.31 0.31 0.32 0.33 0.33 0.34 0.35 0.35 0.35 0.36 0.37 0.40 0.41 0.41 0.43 0.45 0.46 0.45 0.45 0.46 0.46 0.47 0.46